Location: Lanoux
(43.1180°N, 1.4255°E)
Time: 01:51:43
(UTC+00:00)

Meteor 2-10 - Pass Details

Date: 13 December 2025
Orbit: 737 x 865 km, 81.2° (Epoch: 17 January)

Event Time Altitude Azimuth Distance (km) Brightness Sun altitude
Rises 17:56:17 0° 350° (N) 3,313 7.2 -16.9°
Reaches altitude 10° 17:58:38 10° 351° (N) 2,398 6.5 -17.4°
Maximum altitude 18:04:05 84° 81° (E) 838 4.1 -18.3°
Drops below altitude 10° 18:09:41 10° 169° (S) 2,460 6.6 -19.3°
Sets 18:12:07 0° 170° (S) 3,404 7.4 -19.7°
